Wind_Speed
26 26 26 26 26 26 27 27 27 28 28 28 28 28 28 30 31 31 33 34 35 35 36 37 38 39 40 40 42 43 44 45 46 47 49 50 51 51 53 54 55 56 57 58
29 28 28 28 28 28 28 28 29 30 30 30 30 30 30 30 31 33 33 34 35 36 38 38 39 40 41 42 43 44 46 47 48 49 50 51 52 52 54 55 56 57 58 58
31 30 30 30 30 30 31 31 31 32 32 32 33 32 31 31 32 33 34 35 35 37 38 39 40 41 42 43 44 46 47 48 49 50 51 52 53 54 55 56 57 58 59 59
34 33 32 32 32 32 33 33 33 34 34 35 35 36 32 33 33 34 35 36 36 37 39 40 40 42 44 45 46 47 48 49 51 52 53 54 55 55 56 57 58 59 60 60
35 34 34 34 33 34 35 35 35 36 37 38 37 38 35 35 34 34 35 36 37 38 40 41 41 43 44 45 46 48 49 50 51 53 54 55 56 57 57 58 59 60 61 61
37 37 36 36 36 36 37 37 38 39 39 40 38 39 38 37 36 36 36 37 38 40 41 42 43 43 44 46 48 49 50 51 52 54 56 57 58 58 59 59 60 61 61 62
39 39 38 38 38 38 38 39 40 41 42 42 41 41 40 39 38 39 39 39 40 41 43 43 44 44 46 47 48 50 51 52 54 55 57 58 59 59 59 60 60 61 61 61
42 41 40 40 40 40 40 40 41 42 44 44 44 44 42 41 41 41 41 42 42 44 45 45 46 47 48 49 50 51 52 53 54 55 56 57 58 59 59 59 59 60 59 58
43 44 44 42 41 41 41 41 41 43 45 46 45 45 45 44 43 43 43 44 45 46 47 48 49 50 51 52 52 53 54 54 55 56 57 57 57 58 58 57 57 57 56 57
44 46 46 44 44 43 43 43 43 43 45 46 47 46 46 46 45 46 46 46 47 48 49 50 51 52 53 53 54 54 55 55 56 57 57 56 57 56 56 56 55 55 54 54
46 46 47 47 45 44 44 45 45 46 46 47 48 48 47 48 47 48 48 49 49 50 51 52 53 53 54 54 55 55 55 55 55 56 56 55 56 55 54 53 53 53 52 51
47 48 48 48 47 47 47 46 46 46 47 48 49 51 47 47 48 48 49 49 50 51 52 54 54 54 55 55 56 56 56 55 54 55 55 55 55 53 52 52 52 51 49 48
48 49 49 49 49 49 48 47 47 47 48 49 51 51 48 48 48 48 49 50 51 52 53 54 54 55 56 56 56 57 56 55 54 54 53 53 52 51 51 51 50 49 47 45
48 50 50 50 49 49 49 48 48 48 50 51 51 50 48 48 48 49 50 51 52 53 54 55 55 55 55 55 55 56 55 54 54 53 53 52 51 49 49 49 47 46 45 43
48 49 50 49 49 49 50 49 49 50 51 52 51 50 48 48 49 50 51 52 53 54 55 55 55 55 55 54 55 54 54 54 53 53 52 50 50 49 48 46 44 43 42 40
47 48 49 49 49 49 50 50 50 51 52 52 52 51 48 49 50 50 52 53 54 54 54 54 54 54 54 54 54 53 53 53 52 50 49 48 47 45 45 43 41 41 39 38
46 47 47 49 48 51 53 50 51 52 51 52 53 51 50 50 50 51 52 53 53 53 53 54 54 54 54 54 53 52 52 51 50 48 46 45 44 44 43 42 40 38 36 35
46 46 46 47 48 51 51 49 50 51 51 51 51 50 50 50 50 50 52 52 53 53 54 54 54 53 53 53 52 52 51 50 48 46 46 45 43 41 40 38 36 35 33 33
46 46 46 48 49 52 49 47 47 49 50 49 50 49 49 49 49 50 51 52 53 54 54 54 53 53 52 51 51 50 49 48 47 45 44 42 41 39 37 35 33 32 31 31
44 46 47 48 50 51 48 46 46 48 49 47 48 49 49 50 51 50 51 52 53 53 53 53 53 52 51 50 50 49 47 46 45 43 41 40 39 37 35 32 30 29 29 29
43 44 45 46 48 49 47 46 46 48 49 48 48 49 50 50 51 52 52 53 53 52 52 52 52 51 50 50 49 47 46 44 43 41 39 38 37 35 32 30 29 28 27 26
41 42 43 43 45 46 45 45 45 47 48 49 50 50 50 51 51 51 51 51 50 50 51 51 50 49 48 47 46 45 43 42 41 39 38 36 35 33 30 28 27 26 25 23
41 42 43 44 45 44 45 45 46 48 49 50 50 50 51 50 50 50 49 49 49 49 49 48 47 47 46 45 43 43 41 41 39 37 35 33 32 30 28 26 24 23 22 21
39 41 43 44 44 44 45 46 46 47 48 48 49 50 50 49 48 48 47 46 46 46 46 46 46 45 43 42 41 40 39 38 37 35 33 31 29 27 25 24 23 21 19 18
39 41 43 44 43 45 45 45 45 46 47 47 47 46 46 45 45 45 45 45 45 45 45 45 44 42 41 40 39 38 37 36 35 32 29 28 26 25 23 23 21 20 18 18
39 41 42 43 43 45 45 45 46 46 46 46 45 44 43 44 43 43 43 44 43 43 43 42 41 40 39 38 37 35 35 34 32 29 28 26 25 23 22 21 20 19 18 18
Wind_Direction
265 266 269 271 272 274 276 277 278 278 280 280 281 282 282 283 284 284 284 284 283 282 282 281 278 277 277 277 277 277 277 277 276 276 276 276 276 276 276 276 274 272 271 270
266 267 268 270 272 274 275 277 278 279 280 281 281 282 282 283 285 285 285 285 285 284 284 284 282 280 280 279 279 279 279 279 278 279 279 278 278 278 278 277 275 273 272 271
266 267 268 270 271 273 275 277 278 279 281 281 281 281 282 283 285 286 285 286 287 286 285 285 284 282 282 281 281 281 281 281 280 281 281 281 280 280 279 278 276 274 273 272
266 267 267 269 270 272 273 276 278 280 281 281 282 283 283 284 285 286 286 287 288 287 287 287 285 283 284 283 283 283 282 281 282 282 283 282 282 282 281 280 278 276 275 274
265 266 266 268 270 271 273 276 278 279 280 282 283 284 284 286 287 287 288 289 290 290 289 288 287 286 285 285 285 285 284 284 284 284 284 284 284 283 283 282 280 278 276 275
264 265 266 268 270 272 274 275 277 278 280 281 284 284 285 287 289 289 290 290 291 291 291 290 288 287 287 287 287 286 286 286 286 286 286 286 285 285 284 283 281 279 277 275
264 264 266 268 270 271 273 275 277 279 280 282 283 284 286 288 290 291 291 292 291 291 291 290 289 288 288 289 289 288 288 289 288 288 288 288 287 286 285 284 282 280 278 276
264 265 265 267 269 272 273 274 277 279 281 283 283 285 287 289 290 291 292 292 292 292 292 291 290 290 291 291 291 291 290 291 291 291 290 289 288 287 286 285 284 281 279 277
264 265 266 267 269 270 272 273 275 277 279 281 283 285 286 288 289 291 293 293 293 293 293 293 293 292 292 292 292 293 293 293 292 293 292 291 289 288 287 286 284 282 280 277
263 266 266 267 268 270 272 274 275 276 278 281 282 285 287 288 290 292 293 295 294 294 294 293 293 293 294 294 294 295 295 296 295 294 293 292 290 289 287 286 284 283 280 278
262 264 266 267 268 270 271 272 273 275 277 280 282 284 287 289 290 292 293 294 294 295 295 295 295 295 295 296 296 296 297 296 296 296 294 292 291 289 287 286 284 283 280 278
262 263 265 267 267 268 269 271 272 274 277 278 280 282 285 287 289 290 291 292 293 294 295 295 295 296 296 297 297 297 297 297 298 297 295 293 290 288 286 285 285 283 280 277
262 263 264 265 266 268 269 271 273 274 275 277 279 283 286 287 288 289 290 291 292 293 294 295 296 297 297 298 298 298 298 298 298 297 295 293 291 288 286 286 284 282 279 276
261 262 263 265 268 270 270 270 272 274 275 277 279 283 284 285 287 288 289 291 292 293 294 295 296 297 298 298 299 299 298 298 298 297 295 293 291 289 288 287 284 281 277 274
260 262 263 264 265 267 268 269 271 273 276 278 281 282 284 285 286 287 288 289 290 292 293 294 295 296 298 298 299 299 299 298 296 296 296 293 291 290 289 287 284 280 276 274
259 261 263 264 265 265 266 268 271 273 276 278 280 281 284 285 285 286 288 289 290 292 293 294 295 296 297 297 298 298 298 297 297 296 295 294 293 291 288 285 281 278 274 273
258 260 262 264 265 265 265 268 272 274 275 277 280 283 283 284 285 286 287 289 291 292 293 295 295 296 297 297 297 297 297 297 296 296 295 295 293 291 288 285 280 278 276 273
259 260 262 265 265 265 269 270 271 272 274 276 278 281 282 284 285 286 288 290 291 292 293 294 295 296 296 297 297 297 297 297 296 295 294 295 293 291 288 284 279 278 275 273
259 261 263 265 266 268 269 271 272 273 274 276 279 280 281 283 285 287 289 290 292 292 293 294 295 295 296 296 296 295 296 295 295 294 293 292 292 291 289 283 278 276 274 272
259 261 263 265 267 269 271 271 272 274 275 277 279 281 283 284 286 288 289 290 291 292 293 293 294 295 294 294 294 294 295 294 293 293 292 290 289 289 287 282 278 276 274 272
260 261 263 265 267 270 272 273 273 275 278 279 280 282 284 285 287 288 289 290 291 292 292 293 294 295 295 293 292 293 294 293 292 291 291 290 288 287 285 279 276 275 274 271
262 263 264 265 266 269 271 272 273 275 277 280 281 282 284 285 286 288 289 289 290 290 291 292 293 294 295 294 292 292 293 292 291 290 289 288 286 284 281 276 273 272 271 268
262 263 264 265 267 269 270 272 274 276 278 279 281 282 283 284 285 286 287 288 289 290 291 292 293 294 294 293 292 292 292 291 290 289 288 286 284 281 278 274 271 270 266 261
263 264 264 265 266 268 270 272 274 276 277 278 280 281 282 282 283 284 287 288 290 291 291 291 292 292 292 292 292 292 292 292 291 288 286 284 281 278 274 271 267 264 258 251
264 266 267 267 268 269 271 273 275 275 276 277 279 280 281 281 282 284 286 288 290 291 291 291 291 291 291 291 292 292 291 291 290 288 285 281 277 274 269 265 262 258 251 246
265 267 268 270 270 272 273 275 276 277 277 278 279 280 280 282 284 286 288 290 291 292 292 291 291 291 291 291 291 291 291 290 289 286 282 278 275 270 263 258 256 253 249 244
Height
5725 5726 5726 5726 5725 5725 5724 5724 5723 5723 5722 5722 5722 5722 5721 5719 5718 5717 5716 5714 5713 5712 5711 5709 5708 5708 5708 5708 5707 5707 5706 5705 5704 5704 5703 5702 5701 5700 5699 5698 5697 5697 5696 5696
5718 5719 5719 5718 5718 5718 5717 5717 5716 5716 5715 5714 5714 5714 5714 5712 5711 5709 5707 5705 5704 5703 5701 5700 5699 5698 5697 5697 5696 5695 5694 5693 5692 5691 5690 5688 5688 5687 5685 5684 5683 5681 5681 5681
5710 5712 5711 5711 5711 5710 5710 5709 5709 5708 5707 5707 5706 5707 5706 5705 5703 5701 5699 5697 5695 5693 5692 5690 5689 5688 5687 5686 5685 5684 5682 5681 5679 5678 5677 5675 5674 5673 5671 5669 5668 5666 5665 5664
5701 5703 5703 5703 5703 5702 5702 5701 5701 5700 5699 5698 5698 5696 5699 5697 5695 5693 5691 5689 5687 5685 5682 5680 5678 5677 5676 5675 5673 5671 5670 5668 5666 5664 5663 5661 5659 5658 5656 5654 5652 5651 5650 5649
5693 5694 5694 5694 5695 5694 5693 5693 5693 5691 5689 5689 5689 5687 5690 5688 5687 5685 5683 5681 5678 5675 5673 5670 5668 5667 5665 5663 5661 5659 5657 5655 5653 5650 5648 5646 5644 5642 5640 5638 5636 5634 5633 5632
5683 5684 5685 5686 5686 5685 5685 5685 5683 5681 5680 5680 5681 5679 5679 5678 5677 5676 5674 5671 5668 5666 5663 5661 5658 5656 5655 5652 5650 5647 5645 5642 5639 5636 5633 5631 5628 5626 5624 5622 5619 5617 5616 5615
5674 5674 5676 5676 5676 5676 5676 5676 5674 5672 5670 5671 5671 5669 5671 5669 5668 5666 5664 5662 5659 5656 5654 5651 5649 5646 5644 5641 5638 5635 5632 5629 5625 5622 5618 5615 5612 5609 5607 5604 5602 5600 5598 5597
5663 5664 5666 5667 5667 5667 5666 5666 5666 5663 5661 5660 5659 5659 5661 5660 5658 5656 5654 5652 5649 5646 5643 5640 5638 5635 5632 5629 5626 5622 5618 5614 5610 5607 5603 5599 5596 5593 5590 5587 5584 5582 5580 5578
5652 5652 5654 5656 5656 5657 5656 5656 5656 5654 5651 5650 5650 5650 5650 5649 5648 5646 5644 5641 5638 5635 5632 5629 5626 5623 5619 5616 5612 5608 5604 5600 5596 5591 5588 5584 5580 5576 5573 5570 5568 5565 5563 5561
5640 5640 5642 5644 5645 5645 5646 5645 5644 5643 5640 5639 5640 5640 5640 5638 5637 5635 5632 5630 5627 5623 5620 5617 5614 5610 5606 5602 5599 5594 5589 5585 5580 5576 5572 5568 5564 5560 5557 5555 5552 5549 5547 5545
5628 5629 5630 5632 5634 5635 5635 5634 5633 5631 5630 5629 5628 5632 5630 5628 5626 5624 5621 5618 5614 5611 5608 5605 5601 5597 5593 5589 5585 5581 5576 5571 5566 5562 5557 5553 5549 5545 5542 5539 5537 5534 5532 5530
5616 5616 5617 5620 5622 5621 5621 5622 5622 5622 5620 5618 5617 5622 5621 5619 5616 5613 5610 5606 5603 5599 5596 5592 5588 5584 5580 5576 5571 5566 5562 5557 5552 5547 5542 5538 5535 5531 5528 5525 5522 5519 5518 5517
5603 5603 5605 5606 5610 5610 5610 5611 5610 5609 5608 5606 5605 5611 5611 5608 5604 5601 5597 5594 5590 5587 5583 5580 5576 5571 5567 5562 5557 5552 5547 5542 5538 5533 5529 5524 5520 5517 5513 5511 5508 5506 5504 5504
5589 5590 5593 5596 5596 5596 5597 5598 5598 5596 5594 5594 5595 5598 5599 5596 5592 5589 5585 5582 5578 5574 5571 5567 5563 5559 5554 5549 5544 5539 5534 5529 5525 5520 5515 5511 5507 5503 5500 5497 5494 5492 5491 5491
5575 5577 5580 5582 5584 5583 5583 5585 5585 5584 5583 5582 5585 5584 5587 5583 5580 5576 5573 5569 5566 5562 5558 5554 5550 5546 5541 5536 5531 5526 5521 5516 5511 5507 5502 5498 5493 5490 5487 5484 5481 5480 5479 5479
5563 5565 5566 5568 5571 5570 5569 5572 5573 5572 5572 5570 5570 5572 5575 5570 5566 5563 5560 5556 5553 5550 5546 5541 5538 5533 5529 5524 5519 5514 5509 5503 5498 5494 5490 5485 5481 5478 5475 5472 5470 5469 5468 5468
5551 5553 5553 5555 5558 5554 5556 5563 5562 5561 5560 5559 5557 5561 5559 5555 5553 5550 5546 5543 5540 5536 5533 5529 5525 5520 5516 5511 5506 5501 5496 5491 5486 5482 5478 5474 5470 5467 5463 5461 5459 5458 5457 5458
5539 5541 5540 5541 5542 5540 5549 5551 5549 5547 5547 5547 5545 5546 5545 5542 5539 5537 5533 5530 5527 5523 5520 5516 5512 5507 5503 5498 5493 5488 5484 5479 5475 5471 5467 5463 5459 5456 5453 5450 5449 5448 5448 5448
5528 5529 5528 5528 5527 5527 5535 5538 5536 5534 5534 5535 5533 5532 5531 5528 5526 5525 5521 5517 5514 5510 5506 5502 5498 5494 5490 5486 5480 5476 5472 5467 5463 5459 5456 5452 5448 5446 5443 5441 5440 5439 5439 5440
5516 5516 5517 5516 5515 5515 5524 5526 5523 5521 5521 5523 5521 5519 5518 5515 5513 5513 5509 5504 5501 5497 5493 5489 5486 5482 5477 5473 5468 5464 5460 5456 5451 5448 5445 5442 5439 5436 5435 5433 5432 5432 5432 5432
5504 5504 5505 5504 5503 5504 5512 5512 5511 5510 5510 5509 5507 5506 5504 5502 5499 5498 5495 5491 5488 5484 5480 5476 5472 5469 5464 5460 5455 5451 5448 5444 5440 5437 5434 5431 5429 5427 5426 5425 5425 5424 5424 5425
5492 5492 5493 5493 5492 5497 5499 5499 5499 5497 5495 5494 5493 5492 5490 5488 5486 5483 5481 5478 5475 5471 5468 5464 5460 5456 5452 5447 5442 5439 5436 5432 5429 5426 5423 5422 5420 5418 5417 5417 5417 5417 5418 5419
5480 5482 5482 5483 5485 5486 5485 5485 5484 5483 5482 5481 5480 5479 5477 5475 5473 5471 5468 5465 5462 5458 5455 5451 5447 5444 5440 5435 5431 5428 5425 5421 5418 5415 5413 5412 5411 5409 5409 5409 5410 5411 5411 5413
5469 5470 5469 5470 5473 5473 5473 5472 5472 5470 5469 5468 5467 5465 5463 5461 5459 5457 5455 5452 5449 5446 5442 5439 5435 5432 5428 5424 5420 5417 5414 5410 5408 5406 5404 5403 5402 5402 5402 5402 5403 5404 5406 5408
5458 5458 5458 5458 5461 5461 5461 5460 5459 5458 5456 5455 5454 5452 5450 5448 5446 5444 5442 5440 5437 5434 5430 5427 5423 5420 5417 5414 5410 5407 5403 5401 5398 5397 5396 5395 5395 5395 5395 5396 5397 5398 5400 5402
5449 5448 5447 5448 5449 5448 5448 5447 5446 5445 5444 5442 5441 5440 5438 5435 5434 5432 5430 5427 5424 5421 5418 5415 5412 5409 5406 5403 5400 5397 5394 5391 5389 5388 5388 5387 5387 5388 5389 5390 5391 5393 5395 5397